Погода Канин Нос

Хотите узнать прогноз погоды Канин Нос? Тогда Вам сюда: Погода Канин Нос

Поиск расширенной информации на нашем сайте:

Полезная информация:

Новости сайта



02.01.2020
Опубликован Долгосрочный прогноз погоды по городам России и ближнего зарубежья на январь 2020 года.
Карты: Прогноз на январь и февраль 2020 года, Сравнение прогнозируемой аномалии приземной температуры воздуха на январь 2020 года по разным моделям.




Погода Канин Нос - сегодня

Время (UTC), дата Ветер
(°,м/с) 
Видим.   Явления Облачность Т
(°С)
Тd
(°С)
f(%) Тe
(°С)
Pmin
(гПа)
dP
(гПа)
Po
(мм)
O2
(г/м3)
Тmin Tmax R s Состояние
почвы
00 29.11.20 200 (Ю) 13-17{17}  2000 м  слаб. ливневой снег  10/10 300 м кучево-дожд. 
[Cb cap]
-0.3 -1 95 -6  1028.4  -0.6  767  309           
03 29.11.20 200 (Ю) 13-17{18}  20000 м  {ливн. осадки}  10/10 300 м кучево-дожд. 
[Cb cap]
-0.3 -1.4 92 -6  1026.7  -1.8  765  309  -0.6    0.3  равномерный
сухой снег
100% 
06 29.11.20 210 (ЮЗ) 13-16{18}  4000 м  дымка{ливн. осадки}  10/10 300 м кучево-дожд. 
[Cb cap]
+0 -1.2 92 -6  1025.9  -0.7  765  308           
09 29.11.20 210 (ЮЗ) 13-17{18}  4000 м  дымка  10/10 300 м кучево-дожд. 
[Cb cap]
-0.7 -1.1 97 -7  1025.5  -0.4  764  309           
12 29.11.20 220 (ЮЗ) 11-16{18}  20000 м  в посл. час ливневой снег  10/10 300 м кучево-дожд. 
[Cb cap]
-0.1 -1.4 91 -5  1025.6  764  308           
15 29.11.20 210 (ЮЗ) 10-13{16}  20000 м    10/10 300 м 
[St]
+0.1 -2.3 84 -5  1025.6  764  308    +0.2  0.0     
18 29.11.20 210 (ЮЗ) 11-15{15}  10 км  слаб. ливневой дождь  9/9 300 м кучево-дожд. 
[Cb cap]
+0.1 -2 86 -5  1024.6  -0.9  764  308           
21 29.11.20 200 (Ю) 13-17{17}  20000 м  {ливн. осадки}  10/10 300 м кучево-дожд. 
[Cb cap]
-0.2 -2.3 86 -6  1023.8  -0.9  763  308           
00 30.11.20 210 (ЮЗ) 13-18{21}  20000 м  {ливн. осадки}  9/9 300 м кучево-дожд. 
[Cb cap]
-0.2 -2.4 85 -6  1023.3  -0.5  763  308           
03 30.11.20 210 (ЮЗ) 13-17{20}  20000 м    8/6 600 м средняя 
[Sc|Ac As]
-0.1 -2.8 82 -6  1022.3  -0.9  762  308  -0.3    0.0  мокрый или
старый снег
50-90% 
06 30.11.20 210 (ЮЗ) 12-18{19}  20000 м    10/8 600 м средняя 
[Sc|Ac As]
+0.1 -2.9 80 -5  1021.7  -0.6  762  307           
09 30.11.20 210 (ЮЗ) 13-17{19}  20000 м    10/10 600 м 
[Sc]
+0 -2.9 81 -6  1021.7  762  307           
12 30.11.20 200 (Ю) 13-19{20}  20000 м    10/9 600 м средняя 
[Sc|Ac As]
-0.1 -2.8 82 -6  1020.8  -0.9  761  307           
15 30.11.20 200 (Ю) 14-18{20}  20000 м    10/8 600 м средняя 
[Sc|Ac As]
+0.7 -1.5 85 -5  1019.7  -1.1  760  306    +0.7       
18 30.11.20 200 (Ю) 13-17{20}  20000 м    9/9 600 м 
[Sc]
+1.2 -0.9 86 -4  1018.9  -0.8  760  305           
21 30.11.20 190 (Ю) 13-16{18}  20000 м  {дождь}  10/6 600 м средняя 
[Sc|Ac As]
+1.5 -1 83 -4  1017.8  -1.1  759  304           
00 01.12.20 190 (Ю) 14-19{21}  20000 м  {дождь}  10/8 300 м средняя 
[Sc|Ac As]
+1.2 -0.8 86 -4  1015.3  -2.4  757  304           
03 01.12.20 200 (Ю) 14-19{19}  20000 м    9/8 600 м средняя 
[Sc|Ac As]
+1.7 -0.1 88 -4  1013.6  -1.8  756  303  +0.7    0.0  мокрый или
старый снег
10-40% 
06 01.12.20 200 (Ю) 12-17{19}  20000 м    10/10 300 м 
[Sc]
+2 +0.3 88 -3  1012.4  -1.1  755  302           
09 01.12.20 200 (Ю) 13-16{19}  20000 м  в посл. час ливневой дождь  10/10 300 м кучево-дожд. 
[Cb cap]
+1.2 +0.6 96 -4  1011.3  -1.1  754  302           
12 01.12.20 200 (Ю) 15-19{19}  20000 м  в посл. час ливневой дождь  10/9 300 м кучево-дожд., средняя 
[Cb cap|Ac As]
+1.9 -0.4 85 -4  1009.1  -2.2  752  301           
15 01.12.20 220 (ЮЗ) 13-20{20}  20000 м  в посл. час ливневой снег  9/9 300 м кучево-дожд. 
[Cb cap]
+0.4 -0.2 96 -5  1008.6  -0.5  752  303    +2.2     
21 01.12.20 230 (ЮЗ) 13-18{19}  4000 м  слаб. ливневой дождь со снегом  9/9 300 м кучево-дожд. 
[Cb cap]
+0.9 -0.4 91 -4  1009.9  753  302           
00 02.12.20 230 (ЮЗ) 10-14{18}  20000 м  {ливн. осадки}  10/8 300 м кучево-дожд., средняя 
[Cb cap|Ac As]
+1.1 -0.3 90 -4  1011.4  1.4  754  303           
03 02.12.20 280 (З) 6-10{14}  20000 м  {ливн. осадки}  9/8 300 м кучево-дожд., средняя 
[Cb cap|Ac As]
+1.3 +0.6 95 -2  1012.6  1.3  755  303  +0.1    <0.5  равномерный
мокрый или
старый снег
100% 
Время (UTC), дата Ветер
(°,м/с) 
Видим.   Явления Облачность Т
(°С)
Тd
(°С)
f(%) Тe
(°С)
Pmin
(гПа)
dP
(гПа)
Po
(мм)
O2
(г/м3)
Тmin Tmax R s Состояние
почвы

Для получения пояснительной информации подведите курсор к названию столбца.

ПОГОДА Канин Нос - архив

Всё, что Вы хотите узнать о погоде Канин Нос - удобно и подробно!

Выберите нужную дату (начиная с 1 января 2019* года) и нажмите кнопку "Найти".
Будут отображены архивные сводки погоды по пункту Канин Нос, начиная с указанной даты.


Отображать данные в формате CSV (для использования в таблицах Excel)


Внимание! Наш архив погоды предназначен исключительно для личного некоммерческого использования в познавательных целях. Если Вам необходимы официальные справки о состоянии погоды (для производственных, юридических, коммерческих и т.п. целей), обращайтесь в органы Росгидромета.

*Примечание: данная дата относится к архиву по метеостанциям СССР (Россия, СНГ, Балтия).
Архив по метеостанциям Зарубежной Европы и Азии (кроме Китая) хранится 10 дней, по другим регионам земного шара (Китай, Африка, Америка, Австралия, Океания) - 1 день.

Канин Нос - район местоположения метеостанции


Название, широта, долгота, высота метеостанции:
Канин Нос 68.6°ш. 43.3°д. 49 м над ур. моря [Российская Федерация]

Дополнительная информация

В oтличие oт бoльшинства пoгoдных сайтoв мы публикуем пoдрoбную метеoинфoрмацию в детальнoм прoфессиoнальнoм фoрмате.

Характеристики температуры и влажнoсти вoздуха измеряются на высoте 2 м в тени вдали oт зданий и деревьев.
Скoрoсть ветра измеряется на высoте 10 м (на урoвне рoста челoвека скoрoсть ветра ниже в 1.5-2 раза). Если метеoстанция нахoдится в гoрoде или в лесу, тo скoрoсть ветра занижена на 2-4 м/с пo сравнению с oткрытым местoм. Скoрoсть ветра над акватoриями крупных рек и oзёр, а также на вершинах хoлмoв на 2-5 м/с выше, чем в oбычных услoвиях.
Атмoсфернoе давление в разных тoчках местнoсти мoжет значительнo oтличаться oт давления на метеoстанции, в зависимoсти oт услoвий рельефа (при пoдъёме на 10 м давление пoнижается примернo на 1 мм рт.ст.).